N0RWU Weather Reports


Display with metric or nautical units.
time (UTC)temp
F
wind
direction
speed
MPH
gust
MPH
rain 1hr
in
rain 24hr
in
rain mn
in
humidity
%
barometer
mb
20260509152107 69 222 8.0 13.0 0.00 0.00 0.00 35 998.6
20260509151107 69 248 2.0 3.0 0.00 0.00 0.00 35 998.8
20260509150108 69 266 5.0 6.0 0.00 0.00 0.00 36 999.0
20260509145107 68 275 5.0 6.0 0.00 0.00 0.00 37 998.9
20260509144107 66 104 6.0 8.0 0.00 0.00 0.00 37 999.1
20260509143107 66 250 8.0 11.0 0.00 0.00 0.00 37 999.2
20260509142108 68 252 11.0 15.0 0.00 0.00 0.00 35 999.1
20260509140107 66 114 7.0 10.0 0.00 0.00 0.00 36 999.0
20260509134107 64 254 9.0 10.0 0.00 0.00 0.00 39 998.8
20260509133108 64 213 8.0 10.0 0.00 0.00 0.00 39 998.8
20260509131107 64 240 2.0 2.0 0.00 0.00 0.00 42 997.3
20260509130107 62 225 4.0 4.0 0.00 0.00 0.00 43 997.3
20260509124107 60 225 2.0 3.0 0.00 0.00 0.00 46 997.2
20260509123107 58 238 4.0 5.0 0.00 0.00 0.00 47 997.2
20260509122107 57 237 3.0 4.0 0.00 0.00 0.00 49 997.1
20260509121107 55 230 4.0 6.0 0.00 0.00 0.00 51 997.2
20260509120108 54 257 2.0 2.0 0.00 0.00 0.00 57 996.9
20260509115107 51 175 0.0 0.0 0.00 0.00 0.00 61 996.7
20260509114107 48 175 0.0 0.0 0.00 0.00 0.00 67 996.7
20260509113108 45 175 0.0 0.0 0.00 0.00 0.00 70 996.6
20260509112107 43 218 0.0 0.0 0.00 0.00 0.00 72 996.6
20260509111108 44 272 0.0 0.0 0.00 0.00 0.00 73 996.6
20260509110107 44 207 0.0 0.0 0.00 0.00 0.00 73 996.3
20260509105107 43 207 0.0 0.0 0.00 0.00 0.00 72 996.3
20260509104109 44 207 0.0 0.0 0.00 0.00 0.00 73 996.3
20260509103107 44 207 0.0 0.0 0.00 0.00 0.00 72 996.4
20260509102108 45 207 0.0 0.0 0.00 0.00 0.00 70 996.3
20260509101107 45 126 0.0 0.0 0.00 0.00 0.00 71 996.5
20260509100107 46 104 0.0 0.0 0.00 0.00 0.00 70 996.7
20260509095108 45 231 0.0 0.0 0.00 0.00 0.00 71 996.7
20260509093107 46 217 0.0 0.0 0.00 0.00 0.00 69 996.6
20260509092107 46 190 0.0 0.0 0.00 0.00 0.00 68 996.7
20260509091108 46 329 0.0 0.0 0.00 0.00 0.00 68 996.7
20260509090107 46 330 0.0 0.0 0.00 0.00 0.00 68 996.8
20260509085107 48 329 0.0 0.0 0.00 0.00 0.00 67 996.8
20260509084107 49 329 1.0 1.0 0.00 0.00 0.00 67 996.8
20260509083108 48 240 0.0 0.0 0.00 0.00 0.00 69 996.6
20260509082107 47 195 0.0 0.0 0.00 0.00 0.00 66 996.6
20260509081107 48 195 0.0 0.0 0.00 0.00 0.00 65 996.4
20260509080108 49 168 0.0 0.0 0.00 0.00 0.00 65 996.4
20260509075107 48 191 0.0 0.0 0.00 0.00 0.00 62 996.4
20260509074107 48 214 0.0 0.0 0.00 0.00 0.00 61 996.4
20260509073107 50 214 0.0 0.0 0.00 0.00 0.00 60 996.4
20260509072108 50 214 0.0 0.0 0.00 0.00 0.00 60 996.6
20260509065108 52 207 0.0 0.0 0.00 0.00 0.00 56 996.4
20260509064107 54 207 0.0 0.0 0.00 0.00 0.00 54 996.4
20260509063108 54 272 0.0 0.0 0.00 0.00 0.00 55 996.5
20260509062107 56 274 0.0 1.0 0.00 0.00 0.00 53 996.5
20260509061107 58 231 0.0 0.0 0.00 0.00 0.00 50 996.6
20260509060107 59 231 2.0 2.0 0.00 0.00 0.00 48 996.6
20260509055107 60 244 1.0 2.0 0.00 0.00 0.00 47 996.5
20260509052107 62 256 1.0 2.0 0.00 0.00 0.00 51 996.5
20260509051108 62 254 3.0 4.0 0.00 0.00 0.00 50 996.5
20260509045107 64 227 3.0 3.0 0.00 0.00 0.00 49 996.5
20260509043108 65 245 2.0 3.0 0.00 0.00 0.00 46 996.3
20260509042107 65 240 2.0 3.0 0.00 0.00 0.00 46 996.4
20260509041107 65 199 5.0 7.0 0.00 0.00 0.00 46 996.4
20260509035108 65 254 4.0 5.0 0.00 0.00 0.00 44 996.1
20260509034107 65 237 3.0 4.0 0.00 0.00 0.00 42 995.8
20260509033107 65 207 4.0 4.0 0.00 0.00 0.00 41 995.7
20260509032108 65 219 2.0 3.0 0.00 0.00 0.00 41 995.7
20260509030107 66 208 2.0 2.0 0.00 0.00 0.00 40 995.3
20260509022107 68 254 4.0 4.0 0.00 0.00 0.00 36 995.2
20260509021108 68 179 1.0 2.0 0.00 0.00 0.00 36 995.1
20260509020107 69 162 0.0 0.0 0.00 0.00 0.00 35 995.0
20260509015107 70 248 1.0 2.0 0.00 0.00 0.00 34 995.2
20260509014107 70 167 1.0 2.0 0.00 0.00 0.00 33 995.0
20260509013107 70 199 2.0 2.0 0.00 0.00 0.00 34 995.1
20260509012107 70 254 1.0 2.0 0.00 0.00 0.00 33 994.9
20260509011107 70 95 0.0 2.0 0.00 0.00 0.00 33 995.0
20260509010108 71 232 1.0 2.0 0.00 0.00 0.00 32 995.1
20260509005107 72 240 0.0 0.0 0.00 0.00 0.00 31 994.8
20260509004107 72 248 0.0 1.0 0.00 0.00 0.00 30 994.8
20260509003108 73 247 2.0 3.0 0.00 0.00 0.00 29 994.8
20260509002107 73 250 3.0 4.0 0.00 0.00 0.00 29 994.8
20260509000107 74 248 7.0 13.0 0.00 0.00 0.00 27 995.2
20260508235108 74 228 2.0 3.0 0.00 0.00 0.00 26 995.0
20260508234107 75 263 8.0 9.0 0.00 0.00 0.00 25 995.1
20260508233107 76 202 5.0 7.0 0.00 0.00 0.00 24 995.2
20260508232107 77 245 6.0 7.0 0.00 0.00 0.00 24 995.3
20260508231108 76 250 5.0 5.0 0.00 0.00 0.00 25 995.3
20260508230107 77 244 9.0 11.0 0.00 0.00 0.00 23 995.4
20260508225107 77 180 7.0 7.0 0.00 0.00 0.00 23 995.4
20260508224108 77 252 4.0 4.0 0.00 0.00 0.00 23 995.5
20260508223107 78 231 4.0 5.0 0.00 0.00 0.00 22 995.6
20260508222107 78 271 2.0 3.0 0.00 0.00 0.00 25 995.6
20260508221108 75 226 3.0 4.0 0.00 0.00 0.00 24 995.6
20260508220107 76 247 8.0 10.0 0.00 0.00 0.00 23 995.8
20260508214107 77 268 5.0 7.0 0.00 0.00 0.00 22 995.9
20260508213108 79 219 5.0 5.0 0.00 0.00 0.00 22 996.0
20260508212107 78 220 7.0 9.0 0.00 0.00 0.00 22 996.2
20260508205108 76 113 3.0 4.0 0.00 0.00 0.00 25 996.5
20260508204107 77 237 5.0 7.0 0.00 0.00 0.00 21 996.7
20260508203107 76 228 5.0 7.0 0.00 0.00 0.00 23 996.8
20260508201107 78 264 2.0 3.0 0.00 0.00 0.00 23 997.0
20260508194108 79 146 0.0 0.0 0.00 0.00 0.00 22 997.7
20260508193107 78 254 4.0 7.0 0.00 0.00 0.00 22 997.9
20260508192107 78 141 0.0 0.0 0.00 0.00 0.00 25 998.0
20260508191108 76 120 6.0 7.0 0.00 0.00 0.00 23 998.0
20260508185107 75 243 3.0 4.0 0.00 0.00 0.00 25 998.4
20260508184107 75 240 6.0 7.0 0.00 0.00 0.00 24 998.5
20260508182107 75 172 5.0 6.0 0.00 0.00 0.00 25 998.7
20260508181109 75 245 3.0 4.0 0.00 0.00 0.00 24 998.8
20260508180107 74 263 3.0 3.0 0.00 0.00 0.00 24 998.9
20260508175107 75 147 2.0 3.0 0.00 0.00 0.00 25 998.9
20260508173108 74 276 2.0 3.0 0.00 0.00 0.00 26 999.1
20260508171107 73 234 5.0 6.0 0.00 0.00 0.00 26 999.5
20260508170107 73 145 3.0 3.0 0.00 0.00 0.00 27 999.7
20260508165108 73 187 2.0 2.0 0.00 0.00 0.00 27 999.7
20260508164107 74 193 5.0 7.0 0.00 0.00 0.00 26 999.8
20260508163108 74 267 2.0 3.0 0.00 0.00 0.00 29 999.9
20260508162107 75 200 3.0 3.0 0.00 0.00 0.00 27 1000.0
20260508161107 73 141 2.0 3.0 0.00 0.00 0.00 26 1000.0
20260508155107 72 236 2.0 2.0 0.00 0.00 0.00 32 1000.1
20260508154108 72 220 2.0 4.0 0.00 0.00 0.00 34 1000.3
20260508153107 70 204 2.0 2.0 0.00 0.00 0.00 36 1000.4